Location: Dampvalley
(47.9094°N, 6.1967°E)
Time: 13:50:04
(UTC+00:00)

Cosmos 2333 - Pass Details

Date: 05 March 2021
Orbit: 829 x 866 km, 70.9° (Epoch: 14 April)

Event Time Altitude Azimuth Distance (km) Brightness Sun altitude
Rises 04:51:58 0° 328° (NNW) 3,449 7.1 -13.6°
Reaches altitude 10° 04:54:29 10° 324° (NW) 2,512 6.4 -13.2°
Maximum altitude 05:00:03 50° 250° (WSW) 1,089 4.4 -12.2°
Drops below altitude 10° 05:05:36 10° 176° (S) 2,503 6.7 -11.3°
Sets 05:08:06 0° 172° (S) 3,435 7.4 -10.9°
